When you browse on this site, cookies collect data to enhance your experience and personalize the content and advertising you see.
Visit our Privacy Policy to learn more. By continuing to use the site, you agree to this use of cookies and data.
  • en Suisse
  • Liste des pays
  • À 7 jours
  • Température de l'eau
  • Carte satellitaire
  • Carte météo
  • Widgets météo
  • user-avatar
    Se connecter

    Météo par heure à Nha Trang

    Ce jour, 16 Juillet, Mardi

    Heure Température Précipitation Vent Pression Humidité
    00:00 +27°C° 0 mm 2 m/s 744 mmHg 87%
    01:00 +27°C° 0 mm 2 m/s 744 mmHg 86%
    02:00 +27°C° 0 mm 2 m/s 743 mmHg 84%
    03:00 +27°C° 0 mm 2 m/s 743 mmHg 82%
    04:00 +27°C° 0 mm 2 m/s 743 mmHg 80%
    05:00 +27°C° 0 mm 1 m/s 743 mmHg 77%
    06:00 +28°C° 0 mm 1 m/s 743 mmHg 75%
    07:00 +29°C° 0 mm 1 m/s 744 mmHg 72%
    08:00 +31°C° 0.1 mm 1 m/s 744 mmHg 66%
    09:00 +32°C° 0.1 mm 1 m/s 744 mmHg 60%
    10:00 +34°C° 0.1 mm 1 m/s 744 mmHg 54%
    11:00 +35°C° 0.2 mm 2 m/s 743 mmHg 56%
    12:00 +35°C° 0.2 mm 2 m/s 743 mmHg 59%
    13:00 +34°C° 0 mm 3 m/s 742 mmHg 62%
    14:00 +34°C° 0.7 mm 2 m/s 742 mmHg 67%
    15:00 +32°C° 0.7 mm 2 m/s 742 mmHg 71%
    16:00 +32°C° 0.7 mm 2 m/s 741 mmHg 76%
    17:00 +31°C° 0.9 mm 2 m/s 742 mmHg 79%
    18:00 +30°C° 0.9 mm 2 m/s 742 mmHg 83%
    19:00 +28°C° 0.9 mm 1 m/s 742 mmHg 86%
    20:00 +28°C° 0.9 mm 2 m/s 743 mmHg 87%
    21:00 +28°C° 0.9 mm 2 m/s 744 mmHg 88%
    22:00 +27°C° 0.9 mm 2 m/s 744 mmHg 88%
    23:00 +27°C° 0.3 mm 2 m/s 744 mmHg 88%

    Demain, 17 Juillet, Mercredi

    Heure Température Précipitation Vent Pression Humidité
    00:00 +27°C° 0.3 mm 2 m/s 743 mmHg 87%
    01:00 +27°C° 0.3 mm 2 m/s 743 mmHg 87%
    02:00 +26°C° 0.1 mm 2 m/s 743 mmHg 87%
    03:00 +26°C° 0.1 mm 2 m/s 743 mmHg 87%
    04:00 +26°C° 0.1 mm 2 m/s 743 mmHg 87%
    05:00 +26°C° 0 mm 2 m/s 743 mmHg 85%
    06:00 +27°C° 0 mm 2 m/s 743 mmHg 84%
    07:00 +28°C° 0 mm 1 m/s 743 mmHg 82%
    08:00 +30°C° 0 mm 1 m/s 743 mmHg 73%
    09:00 +32°C° 0 mm 1 m/s 743 mmHg 64%
    10:00 +34°C° 0 mm 1 m/s 743 mmHg 56%
    11:00 +35°C° 0.1 mm 2 m/s 742 mmHg 57%
    12:00 +35°C° 0.1 mm 2 m/s 742 mmHg 59%
    13:00 +35°C° 0.1 mm 3 m/s 741 mmHg 61%
    14:00 +34°C° 0.5 mm 3 m/s 741 mmHg 66%
    15:00 +32°C° 0.5 mm 2 m/s 740 mmHg 71%
    16:00 +31°C° 0.5 mm 2 m/s 740 mmHg 76%
    17:00 +31°C° 1 mm 2 m/s 741 mmHg 80%
    18:00 +30°C° 1 mm 1 m/s 741 mmHg 83%
    19:00 +29°C° 1 mm 1 m/s 742 mmHg 87%
    20:00 +28°C° 0.3 mm 1 m/s 742 mmHg 87%
    21:00 +28°C° 0.3 mm 1 m/s 743 mmHg 87%
    22:00 +27°C° 0.3 mm 2 m/s 743 mmHg 88%
    23:00 +27°C° 0.1 mm 2 m/s 743 mmHg 88%

    Après-demain, 18 Juillet, Jeudi

    Heure Température Précipitation Vent Pression Humidité
    00:00 +27°C° 0.1 mm 2 m/s 743 mmHg 88%
    01:00 +27°C° 0.1 mm 2 m/s 743 mmHg 88%
    02:00 +27°C° 0 mm 2 m/s 742 mmHg 87%
    03:00 +27°C° 0 mm 2 m/s 742 mmHg 86%
    04:00 +26°C° 0 mm 2 m/s 742 mmHg 85%
    05:00 +27°C° 0 mm 2 m/s 742 mmHg 82%
    06:00 +28°C° 0 mm 2 m/s 742 mmHg 80%
    07:00 +28°C° 0 mm 2 m/s 743 mmHg 78%
    08:00 +30°C° 0 mm 1 m/s 743 mmHg 71%
    09:00 +32°C° 0 mm 1 m/s 743 mmHg 65%
    10:00 +33°C° 0 mm 1 m/s 743 mmHg 58%
    11:00 +35°C° 0.1 mm 2 m/s 742 mmHg 58%
    12:00 +35°C° 0.1 mm 2 m/s 742 mmHg 58%
    13:00 +35°C° 0.1 mm 3 m/s 741 mmHg 58%
    14:00 +35°C° 0.1 mm 3 m/s 741 mmHg 60%
    15:00 +35°C° 0.1 mm 3 m/s 741 mmHg 62%
    16:00 +34°C° 0.1 mm 3 m/s 740 mmHg 64%
    17:00 +33°C° 0.1 mm 3 m/s 741 mmHg 68%
    18:00 +31°C° 0.1 mm 2 m/s 741 mmHg 72%
    19:00 +30°C° 0.1 mm 2 m/s 742 mmHg 76%
    20:00 +29°C° 0.6 mm 2 m/s 742 mmHg 79%
    21:00 +29°C° 0.6 mm 2 m/s 743 mmHg 82%
    22:00 +28°C° 0.6 mm 2 m/s 743 mmHg 85%
    23:00 +28°C° 0 mm 2 m/s 743 mmHg 85%

    19 Juillet, Vendredi

    Heure Température Précipitation Vent Pression Humidité
    00:00 +27°C° 0 mm 2 m/s 743 mmHg 85%
    01:00 +27°C° 0 mm 2 m/s 743 mmHg 85%
    02:00 +27°C° 0.1 mm 2 m/s 743 mmHg 84%
    03:00 +27°C° 0.1 mm 2 m/s 742 mmHg 84%
    04:00 +27°C° 0.1 mm 2 m/s 742 mmHg 83%
    05:00 +27°C° 0.2 mm 2 m/s 743 mmHg 83%
    06:00 +27°C° 0.2 mm 2 m/s 743 mmHg 83%
    07:00 +27°C° 0.2 mm 2 m/s 744 mmHg 82%
    08:00 +28°C° 0 mm 1 m/s 744 mmHg 81%
    09:00 +29°C° 0 mm 1 m/s 744 mmHg 79%
    10:00 +27°C° 0 mm 0 m/s 744 mmHg 77%
    11:00 +31°C° 0 mm 1 m/s 744 mmHg 71%
    12:00 +32°C° 0 mm 1 m/s 743 mmHg 64%
    13:00 +35°C° 0 mm 2 m/s 742 mmHg 58%
    14:00 +34°C° 0.4 mm 2 m/s 742 mmHg 63%
    15:00 +32°C° 0.4 mm 2 m/s 742 mmHg 69%
    16:00 +32°C° 0.4 mm 2 m/s 741 mmHg 74%
    17:00 +30°C° 0.5 mm 1 m/s 742 mmHg 78%
    18:00 +29°C° 0.5 mm 1 m/s 742 mmHg 82%
    19:00 +28°C° 0.5 mm 1 m/s 743 mmHg 86%
    20:00 +28°C° 0.3 mm 1 m/s 743 mmHg 86%
    21:00 +28°C° 0.3 mm 1 m/s 744 mmHg 87%
    22:00 +27°C° 0.3 mm 2 m/s 744 mmHg 88%
    23:00 +27°C° 0 mm 2 m/s 744 mmHg 87%

    20 Juillet, Samedi

    Heure Température Précipitation Vent Pression Humidité
    00:00 +27°C° 0 mm 2 m/s 743 mmHg 87%
    01:00 +27°C° 0 mm 2 m/s 743 mmHg 86%
    02:00 +27°C° 0 mm 2 m/s 743 mmHg 85%
    03:00 +26°C° 0 mm 2 m/s 743 mmHg 83%
    04:00 +26°C° 0 mm 2 m/s 743 mmHg 82%
    05:00 +27°C° 0 mm 1 m/s 743 mmHg 79%
    06:00 +28°C° 0 mm 1 m/s 744 mmHg 77%
    07:00 +28°C° 0 mm 1 m/s 744 mmHg 74%
    08:00 +31°C° 0 mm 1 m/s 744 mmHg 67%
    09:00 +33°C° 0 mm 1 m/s 744 mmHg 60%
    10:00 +35°C° 0 mm 1 m/s 744 mmHg 53%
    11:00 +36°C° 0 mm 2 m/s 744 mmHg 54%
    12:00 +36°C° 0 mm 3 m/s 743 mmHg 55%
    13:00 +36°C° 0 mm 4 m/s 742 mmHg 57%
    14:00 +35°C° 0.1 mm 3 m/s 742 mmHg 60%
    15:00 +35°C° 0.1 mm 3 m/s 742 mmHg 64%
    16:00 +34°C° 0.1 mm 2 m/s 741 mmHg 68%
    17:00 +32°C° 0.1 mm 2 m/s 742 mmHg 72%
    18:00 +31°C° 0.1 mm 2 m/s 742 mmHg 75%
    19:00 +30°C° 0.1 mm 2 m/s 743 mmHg 79%
    20:00 +29°C° 0 mm 2 m/s 743 mmHg 80%
    21:00 +29°C° 0 mm 2 m/s 744 mmHg 81%
    22:00 +28°C° 0 mm 2 m/s 744 mmHg 82%
    23:00 +28°C° 0.1 mm 2 m/s 744 mmHg 82%

    21 Juillet, Dimanche

    Heure Température Précipitation Vent Pression Humidité
    00:00 +28°C° 0.1 mm 2 m/s 743 mmHg 82%
    01:00 +28°C° 0.1 mm 2 m/s 743 mmHg 82%
    02:00 +28°C° 0 mm 2 m/s 743 mmHg 82%
    03:00 +28°C° 0 mm 2 m/s 743 mmHg 81%
    04:00 +28°C° 0 mm 2 m/s 743 mmHg 80%
    05:00 +28°C° 0 mm 2 m/s 743 mmHg 79%
    06:00 +28°C° 0 mm 1 m/s 743 mmHg 79%
    07:00 +29°C° 0 mm 1 m/s 744 mmHg 78%
    08:00 +30°C° 0 mm 1 m/s 744 mmHg 73%
    09:00 +31°C° 0 mm 1 m/s 744 mmHg 69%
    10:00 +32°C° 0 mm 1 m/s 744 mmHg 64%
    11:00 +33°C° 0 mm 1 m/s 743 mmHg 62%
    12:00 +35°C° 0 mm 2 m/s 743 mmHg 59%
    13:00 +36°C° 0 mm 3 m/s 742 mmHg 57%
    14:00 +36°C° 0.1 mm 3 m/s 742 mmHg 59%
    15:00 +35°C° 0.1 mm 3 m/s 741 mmHg 62%
    16:00 +35°C° 0.1 mm 3 m/s 741 mmHg 64%
    17:00 +33°C° 0.3 mm 3 m/s 741 mmHg 72%
    18:00 +31°C° 0.3 mm 2 m/s 742 mmHg 79%
    19:00 +29°C° 0.3 mm 2 m/s 742 mmHg 86%
    20:00 +29°C° 0 mm 2 m/s 743 mmHg 86%
    21:00 +29°C° 0 mm 2 m/s 743 mmHg 86%
    22:00 +28°C° 0 mm 2 m/s 744 mmHg 86%
    23:00 +28°C° 0.1 mm 2 m/s 743 mmHg 86%
    Voir plus